Location: Observatoire
(46.1952°N, 5.3391°E)
Time: 15:48:53
(UTC+01:00)

Injun/Solrad 3 - Pass Details

Date: 24 February 2026
Orbit: 872 x 984 km, 66.8° (Epoch: 7 March)

Event Time Altitude Azimuth Distance (km) Brightness Sun altitude
Rises 20:21:39 0° 318° (NW) 3,594 11.8 -22.1°
Reaches altitude 10° 20:24:30 10° 307° (NW) 2,664 11.2 -22.6°
Maximum altitude 20:29:37 27° 252° (WSW) 1,733 9.9 -23.5°
Drops below altitude 10° 20:34:48 10° 196° (SSW) 2,705 10.3 -24.4°
Sets 20:37:44 0° 185° (S) 3,659 10.9 -24.9°
